Voltar ao catálogo

CZ-3 DEB

AtivoHEO
NORAD 25936·DEBRIS·🇨🇳 China

Lançado Feb 1, 1986 de Xichang Satellite Launch Center

Loading…

Próximas Passagens (próximas 24 horas)

TLE

AtualizadoSource: Space-Track

Época: Sep 14, 2026, 01:58 UTC

1 25936U 86010D   26257.08197817  .00007374  00000-0  14631-1 0  9990
2 25936  30.5406 166.8513 6514003  31.9534 354.6370  3.18258252 25493

Acompanhe CZ-3 DEB em tempo real com AllMySat

Download on the App Store